| time (UTC) | temp C | wind direction | speed KPH | gust KPH | rain 1hr cm | rain 24hr cm | rain mn cm | humidity % | barometer mb |
| 20260506201803 | 18 | 220 | 1.6 | 8.0 | 0.00 | 0.25 | 0.25 | 90 | 1002.9 |
| 20260506201511 | 17 | 191 | 0.0 | 8.0 | 0.00 | 0.25 | 0.25 | 90 | 1003.1 |
| 20260506200903 | 17 | 223 | 1.6 | 9.7 | 0.00 | 0.25 | 0.25 | 91 | 1003.0 |
| 20260506200013 | 17 | 223 | 0.0 | 6.4 | 0.00 | 0.25 | 0.25 | 92 | 1003.2 |
| 20260506200003 | 17 | 228 | 1.6 | 6.4 | 0.00 | 0.25 | 0.25 | 92 | 1003.1 |
| 20260506195403 | 17 | 228 | 1.6 | 11.3 | 0.00 | 0.25 | 0.25 | 92 | 1003.2 |
| 20260506194505 | 17 | 273 | 3.2 | 12.9 | 0.03 | 0.25 | 0.25 | 93 | 1003.4 |
| 20260506194503 | 17 | 218 | 1.6 | 11.3 | 0.03 | 0.25 | 0.25 | 93 | 1003.3 |
| 20260506193817 | 17 | 200 | 1.6 | 9.7 | 0.03 | 0.25 | 0.25 | 93 | 1003.5 |
| 20260506193007 | 16 | 164 | 0.0 | 9.7 | 0.03 | 0.25 | 0.25 | 93 | 1003.8 |
| 20260506192703 | 17 | 228 | 1.6 | 9.7 | 0.03 | 0.25 | 0.25 | 93 | 1003.6 |
| 20260506191803 | 17 | 222 | 3.2 | 14.5 | 0.03 | 0.25 | 0.25 | 93 | 1003.8 |
| 20260506191510 | 16 | 254 | 1.6 | 12.9 | 0.03 | 0.25 | 0.25 | 93 | 1004.0 |
| 20260506191117 | 17 | 228 | 1.6 | 14.5 | 0.03 | 0.25 | 0.25 | 93 | 1003.9 |
| 20260506190015 | 16 | 221 | 0.0 | 1.6 | 0.05 | 0.25 | 0.25 | 94 | 1003.9 |
| 20260506190003 | 17 | 175 | 0.0 | 1.6 | 0.05 | 0.25 | 0.25 | 94 | 1003.8 |
| 20260506185403 | 17 | 181 | 0.0 | 3.2 | 0.05 | 0.25 | 0.25 | 93 | 1003.8 |
| 20260506184505 | 16 | 209 | 0.0 | 3.2 | 0.03 | 0.23 | 0.23 | 93 | 1003.9 |
| 20260506184503 | 17 | 225 | 0.0 | 6.4 | 0.03 | 0.23 | 0.23 | 93 | 1003.8 |
| 20260506183603 | 17 | 221 | 1.6 | 17.7 | 0.03 | 0.23 | 0.23 | 92 | 1003.8 |
| 20260506183018 | 17 | 99 | 3.2 | 16.1 | 0.03 | 0.23 | 0.23 | 92 | 1004.0 |
| 20260506182703 | 17 | 204 | 1.6 | 11.3 | 0.03 | 0.23 | 0.23 | 92 | 1003.9 |
| 20260506181803 | 17 | 217 | 3.2 | 9.7 | 0.03 | 0.23 | 0.23 | 92 | 1003.9 |
| 20260506181515 | 17 | 167 | 3.2 | 9.7 | 0.03 | 0.23 | 0.23 | 91 | 1004.1 |
| 20260506180903 | 17 | 226 | 1.6 | 8.0 | 0.03 | 0.23 | 0.23 | 91 | 1004.0 |
| 20260506180005 | 17 | 222 | 3.2 | 9.7 | 0.00 | 0.20 | 0.20 | 90 | 1004.1 |
| 20260506175403 | 18 | 221 | 0.0 | 4.8 | 0.03 | 0.20 | 0.20 | 90 | 1004.1 |
| 20260506174716 | 18 | 212 | 1.6 | 9.7 | 0.03 | 0.20 | 0.20 | 89 | 1004.2 |
| 20260506174508 | 18 | 243 | 0.0 | 9.7 | 0.03 | 0.20 | 0.20 | 89 | 1004.4 |
| 20260506173603 | 18 | 226 | 1.6 | 9.7 | 0.03 | 0.20 | 0.20 | 90 | 1004.3 |
| 20260506173012 | 18 | 198 | 1.6 | 11.3 | 0.03 | 0.20 | 0.20 | 90 | 1004.3 |
| 20260506172703 | 18 | 219 | 1.6 | 9.7 | 0.05 | 0.20 | 0.20 | 90 | 1004.2 |
| 20260506171803 | 18 | 199 | 1.6 | 6.4 | 0.05 | 0.20 | 0.20 | 92 | 1003.9 |
| 20260506171507 | 18 | 143 | 1.6 | 8.0 | 0.05 | 0.20 | 0.20 | 92 | 1004.0 |
| 20260506170903 | 18 | 209 | 1.6 | 6.4 | 0.08 | 0.20 | 0.20 | 92 | 1003.9 |
| 20260506170007 | 17 | 195 | 0.0 | 9.7 | 0.08 | 0.18 | 0.18 | 92 | 1004.2 |
| 20260506170004 | 18 | 201 | 1.6 | 9.7 | 0.08 | 0.18 | 0.18 | 92 | 1004.1 |
| 20260506165617 | 17 | 197 | 1.6 | 9.7 | 0.08 | 0.18 | 0.18 | 92 | 1004.3 |
| 20260506164509 | 17 | 199 | 1.6 | 9.7 | 0.13 | 0.18 | 0.18 | 91 | 1004.4 |
| 20260506164503 | 17 | 197 | 1.6 | 9.7 | 0.13 | 0.18 | 0.18 | 91 | 1004.3 |
| 20260506163603 | 17 | 188 | 1.6 | 8.0 | 0.15 | 0.18 | 0.18 | 91 | 1004.8 |
| 20260506163011 | 17 | 151 | 1.6 | 8.0 | 0.13 | 0.15 | 0.15 | 91 | 1005.2 |
| 20260506162917 | 17 | 195 | 0.0 | 3.2 | 0.15 | 0.15 | 0.15 | 91 | 1005.1 |
| 20260506161803 | 17 | 195 | 0.0 | 6.4 | 0.15 | 0.15 | 0.15 | 90 | 1005.4 |
| 20260506161515 | 17 | 206 | 0.0 | 4.8 | 0.13 | 0.13 | 0.13 | 89 | 1005.6 |
| 20260506160903 | 17 | 193 | 0.0 | 6.4 | 0.13 | 0.13 | 0.13 | 88 | 1005.5 |
| 20260506160009 | 17 | 205 | 0.0 | 3.2 | 0.10 | 0.10 | 0.10 | 87 | 1005.9 |
| 20260506160003 | 17 | 190 | 0.0 | 3.2 | 0.10 | 0.10 | 0.10 | 87 | 1005.7 |
| 20260506155616 | 17 | 193 | 0.0 | 3.2 | 0.10 | 0.10 | 0.10 | 86 | 1005.7 |
| 20260506154509 | 18 | 222 | 0.0 | 9.7 | 0.05 | 0.05 | 0.05 | 83 | 1005.8 |
| 20260506154503 | 18 | 191 | 1.6 | 8.0 | 0.05 | 0.05 | 0.05 | 83 | 1005.7 |
| 20260506153603 | 18 | 209 | 1.6 | 14.5 | 0.03 | 0.03 | 0.03 | 82 | 1005.5 |
| 20260506153019 | 18 | 253 | 3.2 | 12.9 | 0.03 | 0.03 | 0.03 | 79 | 1005.7 |
| 20260506152916 | 19 | 200 | 1.6 | 6.4 | 0.00 | 0.00 | 0.00 | 80 | 1005.6 |
| 20260506151803 | 19 | 213 | 1.6 | 6.4 | 0.00 | 0.00 | 0.00 | 79 | 1005.6 |
| 20260506151506 | 19 | 202 | 1.6 | 8.0 | 0.00 | 0.00 | 0.00 | 78 | 1005.8 |
| 20260506150903 | 20 | 215 | 1.6 | 6.4 | 0.00 | 0.00 | 0.00 | 77 | 1005.6 |
| 20260506150006 | 20 | 224 | 1.6 | 8.0 | 0.00 | 0.00 | 0.00 | 74 | 1005.6 |
| 20260506150003 | 20 | 206 | 1.6 | 8.0 | 0.00 | 0.00 | 0.00 | 74 | 1005.4 |
| 20260506145403 | 20 | 203 | 3.2 | 11.3 | 0.00 | 0.00 | 0.00 | 72 | 1005.6 |
| 20260506144515 | 20 | 233 | 1.6 | 11.3 | 0.00 | 0.00 | 0.00 | 71 | 1005.8 |
| 20260506144503 | 20 | 206 | 3.2 | 11.3 | 0.00 | 0.00 | 0.00 | 71 | 1005.7 |
| 20260506143603 | 21 | 216 | 3.2 | 11.3 | 0.00 | 0.00 | 0.00 | 69 | 1005.7 |
| 20260506143104 | 21 | 243 | 3.2 | 16.1 | 0.00 | 0.00 | 0.00 | 69 | 1005.8 |
| 20260506142703 | 21 | 214 | 4.8 | 16.1 | 0.00 | 0.00 | 0.00 | 69 | 1005.7 |
| 20260506142017 | 21 | 199 | 4.8 | 11.3 | 0.00 | 0.00 | 0.00 | 70 | 1005.7 |
| 20260506141606 | 21 | 223 | 4.8 | 12.9 | 0.00 | 0.00 | 0.00 | 70 | 1005.8 |
| 20260506140903 | 21 | 210 | 4.8 | 12.9 | 0.00 | 0.00 | 0.00 | 71 | 1005.6 |
| 20260506140218 | 20 | 205 | 4.8 | 12.9 | 0.00 | 0.00 | 0.00 | 73 | 1005.4 |
| 20260506140016 | 20 | 146 | 6.4 | 12.9 | 0.00 | 0.00 | 0.00 | 72 | 1005.7 |
| 20260506135403 | 20 | 205 | 4.8 | 14.5 | 0.00 | 0.00 | 0.00 | 72 | 1005.5 |
| 20260506134717 | 20 | 207 | 4.8 | 8.0 | 0.00 | 0.00 | 0.00 | 72 | 1005.6 |
| 20260506134506 | 20 | 195 | 4.8 | 11.3 | 0.00 | 0.00 | 0.00 | 72 | 1005.7 |
| 20260506133818 | 20 | 214 | 4.8 | 12.9 | 0.00 | 0.00 | 0.00 | 72 | 1005.6 |
| 20260506133010 | 20 | 163 | 4.8 | 17.7 | 0.00 | 0.00 | 0.00 | 72 | 1005.8 |
| 20260506132703 | 20 | 205 | 4.8 | 17.7 | 0.00 | 0.00 | 0.00 | 71 | 1005.8 |
| 20260506131803 | 20 | 204 | 6.4 | 16.1 | 0.00 | 0.00 | 0.00 | 72 | 1005.7 |
| 20260506131603 | 20 | 194 | 4.8 | 19.3 | 0.00 | 0.00 | 0.00 | 71 | 1005.8 |
| 20260506130903 | 20 | 199 | 4.8 | 16.1 | 0.00 | 0.00 | 0.00 | 72 | 1005.7 |
| 20260506130004 | 20 | 220 | 4.8 | 14.5 | 0.00 | 0.00 | 0.00 | 74 | 1005.8 |
| 20260506125403 | 20 | 207 | 4.8 | 16.1 | 0.00 | 0.00 | 0.00 | 74 | 1005.8 |
| 20260506124506 | 19 | 229 | 4.8 | 16.1 | 0.00 | 0.00 | 0.00 | 74 | 1005.7 |
| 20260506124503 | 20 | 202 | 6.4 | 16.1 | 0.00 | 0.00 | 0.00 | 74 | 1005.5 |
| 20260506123603 | 19 | 205 | 4.8 | 9.7 | 0.00 | 0.00 | 0.00 | 74 | 1005.5 |
| 20260506123008 | 18 | 189 | 4.8 | 14.5 | 0.00 | 0.00 | 0.00 | 75 | 1005.5 |
| 20260506122703 | 18 | 202 | 4.8 | 16.1 | 0.00 | 0.00 | 0.00 | 76 | 1005.5 |
| 20260506121803 | 18 | 198 | 4.8 | 11.3 | 0.00 | 0.00 | 0.00 | 76 | 1005.6 |
| 20260506121513 | 18 | 160 | 3.2 | 9.7 | 0.00 | 0.00 | 0.00 | 77 | 1005.9 |
| 20260506120903 | 18 | 202 | 3.2 | 14.5 | 0.00 | 0.00 | 0.00 | 77 | 1005.8 |
| 20260506120003 | 18 | 206 | 4.8 | 12.9 | 0.00 | 0.00 | 0.00 | 76 | 1005.7 |
| 20260506115403 | 18 | 200 | 4.8 | 12.9 | 0.00 | 0.00 | 0.00 | 76 | 1005.8 |
| 20260506114517 | 18 | 198 | 4.8 | 11.3 | 0.00 | 0.00 | 0.00 | 76 | 1006.0 |
| 20260506114503 | 18 | 202 | 4.8 | 12.9 | 0.00 | 0.00 | 0.00 | 76 | 1005.8 |
| 20260506113603 | 18 | 205 | 4.8 | 12.9 | 0.00 | 0.00 | 0.00 | 76 | 1006.0 |
| 20260506113023 | 18 | 205 | 3.2 | 11.3 | 0.00 | 0.00 | 0.00 | 77 | 1006.0 |
| 20260506112917 | 18 | 206 | 4.8 | 16.1 | 0.00 | 0.00 | 0.00 | 76 | 1005.9 |
| 20260506111803 | 18 | 198 | 4.8 | 20.9 | 0.00 | 0.00 | 0.00 | 78 | 1005.8 |
| 20260506111503 | 18 | 202 | 4.8 | 19.3 | 0.00 | 0.00 | 0.00 | 79 | 1006.0 |
| 20260506110903 | 18 | 199 | 6.4 | 20.9 | 0.00 | 0.00 | 0.00 | 80 | 1005.8 |
| 20260506110008 | 17 | 194 | 4.8 | 8.0 | 0.00 | 0.00 | 0.00 | 81 | 1005.9 |
| 20260506110003 | 17 | 201 | 4.8 | 9.7 | 0.00 | 0.00 | 0.00 | 81 | 1005.8 |
| 20260506105403 | 17 | 206 | 4.8 | 14.5 | 0.00 | 0.00 | 0.00 | 82 | 1005.7 |
| 20260506104509 | 17 | 210 | 3.2 | 9.7 | 0.00 | 0.00 | 0.00 | 84 | 1005.8 |
| 20260506104503 | 17 | 207 | 3.2 | 9.7 | 0.00 | 0.00 | 0.00 | 84 | 1005.7 |
| 20260506103603 | 16 | 206 | 1.6 | 9.7 | 0.00 | 0.00 | 0.00 | 84 | 1005.6 |
| 20260506103105 | 16 | 188 | 1.6 | 4.8 | 0.00 | 0.00 | 0.00 | 84 | 1005.7 |
| 20260506102703 | 16 | 201 | 1.6 | 6.4 | 0.00 | 0.00 | 0.00 | 85 | 1005.7 |
| 20260506101803 | 16 | 204 | 1.6 | 6.4 | 0.00 | 0.00 | 0.00 | 85 | 1005.8 |
| 20260506101509 | 16 | 231 | 1.6 | 8.0 | 0.00 | 0.00 | 0.00 | 85 | 1005.9 |
| 20260506100903 | 16 | 218 | 1.6 | 6.4 | 0.00 | 0.00 | 0.00 | 84 | 1005.7 |
| 20260506100010 | 16 | 217 | 0.0 | 6.4 | 0.00 | 0.00 | 0.00 | 84 | 1005.8 |
| 20260506100004 | 16 | 222 | 1.6 | 4.8 | 0.00 | 0.00 | 0.00 | 84 | 1005.6 |
| 20260506095403 | 16 | 218 | 0.0 | 4.8 | 0.00 | 0.00 | 0.00 | 84 | 1005.6 |
| 20260506094511 | 16 | 205 | 0.0 | 8.0 | 0.00 | 0.00 | 0.00 | 84 | 1005.7 |
| 20260506094503 | 17 | 209 | 1.6 | 8.0 | 0.00 | 0.00 | 0.00 | 84 | 1005.6 |
| 20260506093603 | 17 | 211 | 1.6 | 9.7 | 0.00 | 0.00 | 0.00 | 84 | 1005.5 |
| 20260506093004 | 16 | 215 | 1.6 | 6.4 | 0.00 | 0.00 | 0.00 | 84 | 1005.6 |
| 20260506092703 | 17 | 213 | 1.6 | 9.7 | 0.00 | 0.00 | 0.00 | 84 | 1005.6 |
| 20260506091803 | 16 | 209 | 1.6 | 4.8 | 0.00 | 0.00 | 0.00 | 84 | 1005.5 |
| 20260506091509 | 16 | 208 | 1.6 | 4.8 | 0.00 | 0.00 | 0.00 | 84 | 1005.6 |
| 20260506090903 | 17 | 212 | 1.6 | 9.7 | 0.00 | 0.00 | 0.00 | 84 | 1005.6 |
| 20260506090218 | 17 | 207 | 3.2 | 6.4 | 0.00 | 0.00 | 0.00 | 84 | 1005.7 |
| 20260506090013 | 16 | 195 | 1.6 | 6.4 | 0.00 | 0.00 | 0.00 | 84 | 1005.8 |
| 20260506085403 | 17 | 207 | 1.6 | 9.7 | 0.00 | 0.00 | 0.00 | 84 | 1005.7 |
| 20260506084513 | 16 | 141 | 1.6 | 4.8 | 0.00 | 0.00 | 0.00 | 84 | 1005.8 |
| 20260506084503 | 17 | 198 | 1.6 | 6.4 | 0.00 | 0.00 | 0.00 | 84 | 1005.7 |
| 20260506083603 | 17 | 212 | 1.6 | 8.0 | 0.00 | 0.00 | 0.00 | 83 | 1005.8 |
| 20260506083004 | 17 | 215 | 0.0 | 8.0 | 0.00 | 0.00 | 0.00 | 83 | 1005.9 |
| 20260506082703 | 17 | 200 | 1.6 | 4.8 | 0.00 | 0.00 | 0.00 | 83 | 1005.7 |
| 20260506081803 | 17 | 199 | 1.6 | 6.4 | 0.00 | 0.00 | 0.00 | 82 | 1005.8 |
| 20260506081507 | 17 | 155 | 1.6 | 8.0 | 0.00 | 0.00 | 0.00 | 82 | 1005.9 |
| 20260506080903 | 17 | 197 | 3.2 | 6.4 | 0.00 | 0.00 | 0.00 | 82 | 1005.8 |
| 20260506080218 | 17 | 197 | 3.2 | 6.4 | 0.00 | 0.00 | 0.00 | 82 | 1005.8 |
| 20260506073004 | 17 | 201 | 3.2 | 8.0 | 0.00 | 0.00 | 0.00 | 81 | 1006.0 |
| 20260506072703 | 17 | 204 | 3.2 | 6.4 | 0.00 | 0.00 | 0.00 | 81 | 1005.8 |
| 20260506071803 | 17 | 204 | 3.2 | 4.8 | 0.00 | 0.00 | 0.00 | 80 | 1005.8 |
| 20260506071508 | 17 | 189 | 1.6 | 6.4 | 0.00 | 0.00 | 0.00 | 80 | 1005.9 |
| 20260506070903 | 18 | 200 | 3.2 | 6.4 | 0.00 | 0.00 | 0.00 | 80 | 1005.8 |
| 20260506061803 | 18 | 205 | 3.2 | 9.7 | 0.00 | 0.00 | 0.00 | 77 | 1006.1 |
| 20260506061509 | 18 | 217 | 1.6 | 9.7 | 0.00 | 0.00 | 0.00 | 77 | 1006.2 |
| 20260506060903 | 18 | 205 | 1.6 | 4.8 | 0.00 | 0.00 | 0.00 | 77 | 1006.1 |
| 20260506050903 | 18 | 202 | 3.2 | 9.7 | 0.00 | 0.00 | 0.00 | 73 | 1006.6 |
| 20260506044503 | 19 | 207 | 1.6 | 9.7 | 0.00 | 0.00 | 0.00 | 71 | 1006.7 |
| 20260506043603 | 19 | 204 | 3.2 | 6.4 | 0.00 | 0.00 | 0.00 | 71 | 1006.7 |
| 20260506043006 | 18 | 201 | 1.6 | 6.4 | 0.00 | 0.00 | 0.00 | 70 | 1006.8 |
| 20260506042703 | 19 | 201 | 3.2 | 8.0 | 0.00 | 0.00 | 0.00 | 70 | 1006.7 |
| 20260506041803 | 19 | 201 | 3.2 | 8.0 | 0.00 | 0.00 | 0.00 | 69 | 1006.7 |
| 20260506041508 | 19 | 205 | 3.2 | 8.0 | 0.00 | 0.00 | 0.00 | 69 | 1006.8 |
| 20260506040903 | 20 | 201 | 3.2 | 8.0 | 0.00 | 0.00 | 0.00 | 69 | 1006.7 |
| 20260506040016 | 19 | 191 | 3.2 | 8.0 | 0.00 | 0.00 | 0.00 | 69 | 1006.7 |
| 20260506040004 | 20 | 205 | 3.2 | 9.7 | 0.00 | 0.00 | 0.00 | 69 | 1006.6 |
| 20260506035403 | 20 | 203 | 3.2 | 9.7 | 0.00 | 0.00 | 0.00 | 68 | 1006.6 |
| 20260506034519 | 20 | 195 | 4.8 | 11.3 | 0.00 | 0.00 | 0.00 | 67 | 1006.7 |
| 20260506034503 | 20 | 203 | 4.8 | 11.3 | 0.00 | 0.00 | 0.00 | 67 | 1006.6 |
| 20260506033603 | 20 | 199 | 4.8 | 11.3 | 0.00 | 0.00 | 0.00 | 67 | 1006.5 |
| 20260506033005 | 20 | 241 | 3.2 | 8.0 | 0.00 | 0.00 | 0.00 | 66 | 1006.7 |
| 20260506032703 | 20 | 204 | 4.8 | 9.7 | 0.00 | 0.00 | 0.00 | 66 | 1006.6 |
| 20260506031803 | 20 | 197 | 4.8 | 8.0 | 0.00 | 0.00 | 0.00 | 66 | 1006.6 |
| 20260506031510 | 20 | 189 | 3.2 | 8.0 | 0.00 | 0.00 | 0.00 | 65 | 1006.7 |
| 20260506030903 | 20 | 202 | 3.2 | 8.0 | 0.00 | 0.00 | 0.00 | 65 | 1006.6 |
| 20260506030011 | 20 | 199 | 3.2 | 14.5 | 0.00 | 0.00 | 0.00 | 65 | 1006.8 |
| 20260506030003 | 20 | 193 | 4.8 | 16.1 | 0.00 | 0.00 | 0.00 | 65 | 1006.7 |
| 20260506025403 | 20 | 197 | 4.8 | 16.1 | 0.00 | 0.00 | 0.00 | 64 | 1006.5 |
| 20260506024520 | 20 | 194 | 3.2 | 9.7 | 0.00 | 0.00 | 0.00 | 64 | 1006.7 |
| 20260506024503 | 20 | 199 | 4.8 | 8.0 | 0.00 | 0.00 | 0.00 | 64 | 1006.6 |
| 20260506023603 | 20 | 199 | 3.2 | 8.0 | 0.00 | 0.00 | 0.00 | 64 | 1006.6 |
| 20260506023010 | 20 | 201 | 4.8 | 11.3 | 0.00 | 0.00 | 0.00 | 63 | 1006.6 |
| 20260506022703 | 20 | 201 | 3.2 | 11.3 | 0.00 | 0.00 | 0.00 | 63 | 1006.5 |
| 20260506021803 | 21 | 204 | 4.8 | 12.9 | 0.00 | 0.00 | 0.00 | 62 | 1006.5 |
| 20260506021506 | 20 | 208 | 3.2 | 11.3 | 0.00 | 0.00 | 0.00 | 62 | 1006.7 |
| 20260506020903 | 21 | 207 | 4.8 | 16.1 | 0.00 | 0.00 | 0.00 | 62 | 1006.5 |
| 20260506020010 | 21 | 192 | 3.2 | 14.5 | 0.00 | 0.00 | 0.00 | 62 | 1006.6 |
| 20260506020004 | 21 | 202 | 3.2 | 16.1 | 0.00 | 0.00 | 0.00 | 62 | 1006.5 |
| 20260506015403 | 21 | 202 | 4.8 | 12.9 | 0.00 | 0.00 | 0.00 | 62 | 1006.5 |
| 20260506014503 | 21 | 200 | 4.8 | 11.3 | 0.00 | 0.00 | 0.00 | 61 | 1006.5 |
| 20260506013603 | 21 | 202 | 4.8 | 11.3 | 0.00 | 0.00 | 0.00 | 60 | 1006.4 |
| 20260506013009 | 21 | 192 | 4.8 | 14.5 | 0.00 | 0.00 | 0.00 | 59 | 1006.4 |
| 20260506012917 | 21 | 199 | 4.8 | 14.5 | 0.00 | 0.00 | 0.00 | 59 | 1006.4 |
| 20260506011803 | 22 | 199 | 6.4 | 22.5 | 0.00 | 0.00 | 0.00 | 57 | 1006.2 |
| 20260506011510 | 22 | 192 | 8.0 | 22.5 | 0.00 | 0.00 | 0.00 | 57 | 1006.3 |
| 20260506010903 | 22 | 197 | 4.8 | 16.1 | 0.00 | 0.00 | 0.00 | 56 | 1006.1 |
| 20260506010217 | 22 | 196 | 4.8 | 16.1 | 0.00 | 0.00 | 0.00 | 53 | 1005.9 |
| 20260506010014 | 22 | 133 | 4.8 | 12.9 | 0.00 | 0.00 | 0.00 | 53 | 1006.0 |
| 20260506005403 | 22 | 190 | 6.4 | 16.1 | 0.00 | 0.00 | 0.00 | 52 | 1005.9 |
| 20260506004513 | 22 | 196 | 6.4 | 12.9 | 0.00 | 0.00 | 0.00 | 50 | 1005.8 |
| 20260506004503 | 23 | 193 | 4.8 | 14.5 | 0.00 | 0.00 | 0.00 | 50 | 1005.6 |
| 20260506003603 | 23 | 192 | 4.8 | 11.3 | 0.00 | 0.00 | 0.00 | 49 | 1005.4 |
| 20260506003006 | 23 | 165 | 4.8 | 11.3 | 0.00 | 0.00 | 0.00 | 48 | 1005.5 |
| 20260506002703 | 23 | 195 | 3.2 | 9.7 | 0.00 | 0.00 | 0.00 | 48 | 1005.4 |
| 20260506002016 | 23 | 197 | 4.8 | 9.7 | 0.00 | 0.00 | 0.00 | 47 | 1005.3 |
| 20260506001509 | 23 | 175 | 4.8 | 9.7 | 0.00 | 0.00 | 0.00 | 47 | 1005.4 |
| 20260506000903 | 23 | 197 | 4.8 | 16.1 | 0.00 | 0.00 | 0.00 | 47 | 1005.2 |
| 20260506000219 | 23 | 202 | 3.2 | 9.7 | 0.00 | 0.00 | 0.00 | 47 | 1005.1 |
| 20260506000013 | 23 | 208 | 3.2 | 11.3 | 0.00 | 0.00 | 0.00 | 46 | 1005.2 |
| 20260505235616 | 24 | 204 | 3.2 | 9.7 | 0.00 | 0.00 | 0.00 | 46 | 1005.1 |
| 20260505234506 | 24 | 244 | 4.8 | 17.7 | 0.00 | 0.00 | 0.00 | 45 | 1005.2 |
| 20260505234503 | 24 | 197 | 4.8 | 19.3 | 0.00 | 0.00 | 0.00 | 45 | 1005.1 |
| 20260505233817 | 25 | 208 | 3.2 | 19.3 | 0.00 | 0.00 | 0.00 | 45 | 1005.1 |
| 20260505233006 | 25 | 205 | 4.8 | 22.5 | 0.00 | 0.00 | 0.00 | 44 | 1005.1 |
| 20260505232703 | 25 | 202 | 8.0 | 24.1 | 0.00 | 0.00 | 0.00 | 44 | 1004.9 |
| 20260505231803 | 25 | 207 | 6.4 | 17.7 | 0.00 | 0.00 | 0.00 | 42 | 1004.8 |
| 20260505231510 | 25 | 160 | 6.4 | 19.3 | 0.00 | 0.00 | 0.00 | 42 | 1004.9 |
| 20260505230903 | 25 | 199 | 6.4 | 14.5 | 0.00 | 0.00 | 0.00 | 40 | 1004.6 |
| 20260505230006 | 25 | 196 | 6.4 | 14.5 | 0.00 | 0.00 | 0.00 | 39 | 1004.7 |
| 20260505230003 | 26 | 210 | 4.8 | 14.5 | 0.00 | 0.00 | 0.00 | 39 | 1004.6 |
| 20260505225403 | 26 | 208 | 4.8 | 14.5 | 0.00 | 0.00 | 0.00 | 38 | 1004.6 |
| 20260505224506 | 26 | 150 | 3.2 | 20.9 | 0.00 | 0.00 | 0.00 | 38 | 1004.6 |
| 20260505224503 | 26 | 208 | 4.8 | 20.9 | 0.00 | 0.00 | 0.00 | 38 | 1004.5 |
| 20260505223603 | 26 | 211 | 8.0 | 24.1 | 0.00 | 0.00 | 0.00 | 36 | 1004.4 |
| 20260505223009 | 26 | 246 | 3.2 | 16.1 | 0.00 | 0.00 | 0.00 | 36 | 1004.5 |
| 20260505222703 | 26 | 201 | 8.0 | 17.7 | 0.00 | 0.00 | 0.00 | 36 | 1004.4 |
| 20260505221803 | 26 | 221 | 8.0 | 20.9 | 0.00 | 0.00 | 0.00 | 37 | 1004.5 |
| 20260505221511 | 26 | 247 | 9.7 | 19.3 | 0.00 | 0.00 | 0.00 | 35 | 1004.6 |
| 20260505220903 | 27 | 210 | 6.4 | 14.5 | 0.00 | 0.00 | 0.00 | 35 | 1004.5 |
| 20260505220012 | 27 | 260 | 4.8 | 22.5 | 0.00 | 0.00 | 0.00 | 34 | 1004.5 |
| 20260505220003 | 27 | 213 | 6.4 | 24.1 | 0.00 | 0.00 | 0.00 | 34 | 1004.4 |
| 20260505215618 | 27 | 212 | 8.0 | 24.1 | 0.00 | 0.00 | 0.00 | 33 | 1004.3 |
| 20260505214511 | 27 | 153 | 4.8 | 25.7 | 0.00 | 0.00 | 0.00 | 33 | 1004.2 |
| 20260505214503 | 27 | 209 | 6.4 | 25.7 | 0.00 | 0.00 | 0.00 | 33 | 1004.1 |
| 20260505213603 | 28 | 220 | 8.0 | 24.1 | 0.00 | 0.00 | 0.00 | 31 | 1003.9 |
| 20260505213004 | 28 | 206 | 9.7 | 25.7 | 0.00 | 0.00 | 0.00 | 30 | 1004.1 |
| 20260505212703 | 28 | 232 | 8.0 | 22.5 | 0.00 | 0.00 | 0.00 | 30 | 1004.1 |
| 20260505211803 | 28 | 202 | 9.7 | 25.7 | 0.00 | 0.00 | 0.00 | 32 | 1004.1 |
| 20260505211507 | 28 | 230 | 11.3 | 25.7 | 0.00 | 0.00 | 0.00 | 30 | 1004.1 |
| 20260505210903 | 28 | 215 | 8.0 | 19.3 | 0.00 | 0.00 | 0.00 | 31 | 1003.9 |
| 20260505210012 | 28 | 214 | 8.0 | 25.7 | 0.00 | 0.00 | 0.00 | 32 | 1004.1 |
| 20260505210003 | 28 | 221 | 8.0 | 27.4 | 0.00 | 0.00 | 0.00 | 32 | 1004.0 |
| 20260505205403 | 28 | 216 | 8.0 | 22.5 | 0.00 | 0.00 | 0.00 | 31 | 1003.9 |
| 20260505204504 | 28 | 144 | 8.0 | 22.5 | 0.00 | 0.00 | 0.00 | 33 | 1003.9 |
| 20260505203603 | 28 | 211 | 9.7 | 33.8 | 0.00 | 0.00 | 0.00 | 32 | 1003.9 |
| 20260505203006 | 28 | 181 | 8.0 | 27.4 | 0.00 | 0.00 | 0.00 | 32 | 1004.0 |
| 20260505202703 | 28 | 209 | 9.7 | 27.4 | 0.00 | 0.00 | 0.00 | 33 | 1003.8 |